Weather History for Pipestone, MN

Change the Weather History Date:

Thursday, February 28, 2013

  Actual Average Record
Temperature  
Mean Temperature 20 °F -  
Max Temperature 24 °F 28 °F 42 °F (1999)
Min Temperature 17 °F 13 °F -9 °F (2001)
Degree Days  
Heating Degree Days 44    
Moisture  
Dew Point 19 °F    
Average Humidity 87    
Maximum Humidity 93    
Minimum Humidity 80    
Precipitation  
Precipitation 0.00 in - - ()
Sea Level Pressure  
Sea Level Pressure 30.15 in    
Wind  
Wind Speed 10 mph (North)    
Max Wind Speed 14 mph    
Max Gust Speed 21 mph    
Visibility 9 miles    
Events Snow    
Averages and records for this station are not official NWS values.
T = Trace of Precipitation, MM = Missing Value Source: NWS Daily Summary

Daily Weather History Graph

Daily Weather History Graph

Search for Another Location

Airport:

Trip Planner

Search our weather history database for the weather conditions in past years. The results will help you decide how hot, cold, wet, or windy it might be!

Date:

Astronomy

Feb. 28, 2013 Rise Set
Actual Time 7:03 AM CST 6:12 PM CST
Civil Twilight 6:34 AM CST 6:41 PM CST
Nautical Twilight 6:00 AM CST 7:15 PM CST
Astronomical Twilight 5:27 AM CST 7:48 PM CST
Moon 9:50 PM CST (2/28) 8:05 AM CST (2/28)
Length of Visible Light 12h 07m
Length of Day
11h 09m
Waning Gibbous, 90% of the Moon is Illuminated
Feb 28
Waning Gibbous
Mar 4
Last Quarter
Mar 11
New
Mar 19
First Quarter
Mar 27
Full

Hourly Weather History & Observations

Time (CST) Temp. Windchill Dew Point Humidity Pressure Visibility Wind Dir Wind Speed Gust Speed Precip Events Conditions
12:13 AM 23.0 °F 12.4 °F 21.2 °F 93% 30.07 in 10.0 mi North 10.4 mph 16.1 mph N/A   Overcast
12:53 AM 23.0 °F 10.6 °F 19.4 °F 86% 30.07 in 10.0 mi NNE 13.8 mph 20.7 mph N/A   Overcast
1:13 AM 21.2 °F 9.5 °F 19.4 °F 93% 30.08 in 10.0 mi NNE 11.5 mph 19.6 mph N/A   Overcast
1:33 AM 21.2 °F 10.1 °F 19.4 °F 93% 30.08 in 10.0 mi North 10.4 mph 20.7 mph N/A   Overcast
1:54 AM 21.2 °F 9.5 °F 19.4 °F 93% 30.08 in 10.0 mi North 11.5 mph - N/A   Overcast
2:13 AM 21.2 °F 10.1 °F 19.4 °F 93% 30.09 in 10.0 mi North 10.4 mph - N/A   Overcast
2:33 AM 21.2 °F 10.1 °F 19.4 °F 93% 30.09 in 10.0 mi North 10.4 mph - N/A   Overcast
2:54 AM 21.2 °F 10.1 °F 19.4 °F 93% 30.09 in 10.0 mi North 10.4 mph 17.3 mph N/A   Overcast
3:13 AM 21.2 °F 8.9 °F 17.6 °F 86% 30.09 in 10.0 mi North 12.7 mph - N/A   Overcast
3:33 AM 21.2 °F 8.9 °F 17.6 °F 86% 30.09 in 10.0 mi NNE 12.7 mph 19.6 mph N/A   Overcast
3:54 AM 19.4 °F 7.2 °F 17.6 °F 93% 30.09 in 10.0 mi North 11.5 mph 16.1 mph N/A   Overcast
4:13 AM 19.4 °F 7.9 °F 17.6 °F 93% 30.10 in 10.0 mi NNE 10.4 mph - N/A   Overcast
4:33 AM 19.4 °F 10.4 °F 17.6 °F 93% 30.11 in 10.0 mi North 6.9 mph - N/A   Overcast
4:54 AM 19.4 °F 8.6 °F 17.6 °F 93% 30.11 in 10.0 mi North 9.2 mph - N/A   Overcast
5:13 AM 19.4 °F 7.9 °F 17.6 °F 93% 30.11 in 10.0 mi NNW 10.4 mph - N/A   Overcast
5:33 AM 17.6 °F 5.7 °F 15.8 °F 93% 30.11 in 10.0 mi NNW 10.4 mph - N/A   Overcast
5:53 AM 17.6 °F 6.4 °F 15.8 °F 93% 30.11 in 10.0 mi NNW 9.2 mph - N/A   Overcast
6:13 AM 19.4 °F 7.9 °F 17.6 °F 93% 30.12 in 10.0 mi NNW 10.4 mph - N/A   Overcast
6:33 AM 19.4 °F 7.2 °F 17.6 °F 93% 30.12 in 10.0 mi North 11.5 mph - N/A   Overcast
6:53 AM 19.4 °F 8.6 °F 17.6 °F 93% 30.12 in 10.0 mi North 9.2 mph - N/A   Overcast
7:13 AM 19.4 °F 10.4 °F 17.6 °F 93% 30.13 in 10.0 mi North 6.9 mph - N/A   Overcast
7:33 AM 21.2 °F 10.1 °F 19.4 °F 93% 30.13 in 10.0 mi North 10.4 mph - N/A   Overcast
7:53 AM 21.2 °F 12.6 °F 17.6 °F 86% 30.13 in 10.0 mi North 6.9 mph - N/A   Overcast
8:13 AM 21.2 °F 11.7 °F 19.4 °F 93% 30.14 in 10.0 mi North 8.1 mph - N/A   Overcast
8:34 AM 21.2 °F 10.1 °F 19.4 °F 93% 30.14 in 10.0 mi NNW 10.4 mph - N/A   Overcast
8:53 AM 21.2 °F 9.5 °F 19.4 °F 93% 30.15 in 10.0 mi NNW 11.5 mph - N/A   Overcast
9:13 AM 21.2 °F 10.1 °F 17.6 °F 86% 30.15 in 10.0 mi NNW 10.4 mph - N/A   Overcast
9:33 AM 21.2 °F 11.7 °F 19.4 °F 93% 30.16 in 10.0 mi NW 8.1 mph - N/A   Overcast
9:54 AM 21.2 °F 10.9 °F 19.4 °F 93% 30.17 in 10.0 mi NNW 9.2 mph - N/A   Overcast
10:13 AM 21.2 °F 9.5 °F 19.4 °F 93% 30.16 in 10.0 mi NNW 11.5 mph - N/A   Overcast
10:33 AM 21.2 °F 9.5 °F 19.4 °F 93% 30.17 in 10.0 mi NNW 11.5 mph - N/A   Overcast
10:53 AM 23.0 °F 11.7 °F 19.4 °F 86% 30.18 in 10.0 mi NNW 11.5 mph - N/A   Overcast
11:13 AM 23.0 °F 11.7 °F 19.4 °F 86% 30.18 in 10.0 mi North 11.5 mph - N/A   Overcast
11:33 AM 23.0 °F 11.7 °F 19.4 °F 86% 30.18 in 10.0 mi NNW 11.5 mph - N/A   Overcast
11:53 AM 24.8 °F 14.6 °F 19.4 °F 80% 30.17 in 10.0 mi North 10.4 mph - N/A   Overcast
12:33 PM 24.8 °F 16.1 °F 19.4 °F 80% 30.17 in 10.0 mi North 8.1 mph - N/A   Overcast
12:53 PM 24.8 °F 16.1 °F 19.4 °F 80% 30.17 in 10.0 mi North 8.1 mph - N/A   Overcast
1:13 PM 24.8 °F 14.6 °F 19.4 °F 80% 30.16 in 10.0 mi North 10.4 mph 17.3 mph N/A   Overcast
1:33 PM 24.8 °F 14.6 °F 19.4 °F 80% 30.16 in 10.0 mi North 10.4 mph 16.1 mph N/A   Overcast
1:53 PM 24.8 °F 16.1 °F 19.4 °F 80% 30.16 in 7.0 mi North 8.1 mph 16.1 mph N/A   Overcast
2:13 PM 24.8 °F 16.1 °F 19.4 °F 80% 30.16 in 10.0 mi North 8.1 mph 16.1 mph N/A   Overcast
2:33 PM 24.8 °F 16.9 °F 19.4 °F 80% 30.16 in 10.0 mi North 6.9 mph - N/A   Overcast
2:53 PM 24.8 °F 17.9 °F 19.4 °F 80% 30.16 in 10.0 mi North 5.8 mph - N/A   Overcast
3:13 PM 24.8 °F 16.1 °F 19.4 °F 80% 30.16 in 7.0 mi North 8.1 mph - N/A Snow Light Snow
3:34 PM 24.8 °F 12.9 °F 19.4 °F 80% 30.16 in 7.0 mi NNW 13.8 mph - N/A Snow Light Snow
3:53 PM 24.8 °F 16.1 °F 19.4 °F 80% 30.16 in 7.0 mi North 8.1 mph 17.3 mph N/A Snow Light Snow
4:13 PM 24.8 °F 15.3 °F 19.4 °F 80% 30.16 in 10.0 mi North 9.2 mph 16.1 mph N/A   Overcast
4:33 PM 24.8 °F 14.0 °F 19.4 °F 80% 30.16 in 10.0 mi North 11.5 mph - N/A Snow Light Snow
4:53 PM 24.8 °F 14.0 °F 19.4 °F 80% 30.16 in 7.0 mi North 11.5 mph - N/A   Overcast
5:13 PM 24.8 °F 16.9 °F 19.4 °F 80% 30.16 in 10.0 mi North 6.9 mph - N/A   Overcast
5:33 PM 24.8 °F 15.3 °F 19.4 °F 80% 30.17 in 10.0 mi North 9.2 mph - N/A   Overcast
5:54 PM 23.0 °F 14.7 °F 19.4 °F 86% 30.18 in 10.0 mi North 6.9 mph - N/A   Overcast
6:13 PM 23.0 °F 13.9 °F 19.4 °F 86% 30.18 in 10.0 mi North 8.1 mph - N/A   Overcast
6:33 PM 23.0 °F 12.4 °F 19.4 °F 86% 30.18 in 10.0 mi NNE 10.4 mph - N/A Snow Light Snow
6:53 PM 23.0 °F 13.9 °F 19.4 °F 86% 30.18 in 10.0 mi NNE 8.1 mph - N/A Snow Light Snow
7:13 PM 23.0 °F 15.8 °F 19.4 °F 86% 30.19 in 7.0 mi North 5.8 mph - N/A Snow Light Snow
7:33 PM 23.0 °F 15.8 °F 19.4 °F 86% 30.19 in 7.0 mi North 5.8 mph - N/A Snow Light Snow
7:53 PM 23.0 °F 15.8 °F 19.4 °F 86% 30.20 in 7.0 mi North 5.8 mph - N/A Snow Light Snow
8:13 PM 23.0 °F 17.0 °F 19.4 °F 86% 30.20 in 7.0 mi North 4.6 mph - N/A Snow Light Snow
8:33 PM 21.2 °F 11.7 °F 19.4 °F 93% 30.20 in 7.0 mi North 8.1 mph - N/A Snow Light Snow
8:53 PM 21.2 °F 11.7 °F 19.4 °F 93% 30.20 in 10.0 mi NNE 8.1 mph - N/A Snow Light Snow
9:13 PM 21.2 °F 9.5 °F 17.6 °F 86% 30.20 in 7.0 mi NNE 11.5 mph 16.1 mph N/A Snow Light Snow
9:34 PM 21.2 °F 12.6 °F 17.6 °F 86% 30.20 in 7.0 mi North 6.9 mph - N/A Snow Light Snow
9:53 PM 21.2 °F 13.6 °F 17.6 °F 86% 30.20 in 5.0 mi North 5.8 mph - N/A Snow Light Snow
10:13 PM 21.2 °F 13.6 °F 17.6 °F 86% 30.20 in 10.0 mi North 5.8 mph - N/A Snow Light Snow
10:34 PM 21.2 °F 13.6 °F 17.6 °F 86% 30.20 in 10.0 mi North 5.8 mph - N/A   Overcast
10:53 PM 21.2 °F 11.7 °F 17.6 °F 86% 30.20 in 10.0 mi North 8.1 mph - N/A   Overcast
11:13 PM 21.2 °F 14.9 °F 17.6 °F 86% 30.20 in 10.0 mi North 4.6 mph - N/A   Overcast
11:33 PM 21.2 °F 12.6 °F 17.6 °F 86% 30.19 in 10.0 mi North 6.9 mph - N/A   Overcast
11:53 PM 21.2 °F 13.6 °F 17.6 °F 86% 30.19 in 10.0 mi North 5.8 mph - N/A   Overcast